Time,TemperatureF,DewpointF,PressureIn,WindDirection,WindDirectionDegrees,WindSpeedMPH,WindSpeedGustMPH,Humidity,HourlyPrecipIn,Conditions,Clouds,dailyrainin,SoftwareType,DateUTC
2013-01-12 00:00:00,49.0,45.0,29.87,South,180,13.0,-999.0,87,-99.99,,,-99.99,,2013-01-12 05:00:00,
2013-01-12 00:22:00,49.0,45.0,29.87,South,180,13.0,-999.0,87,-99.99,,,-99.99,,2013-01-12 05:22:00,
2013-01-12 00:32:00,49.0,45.0,29.87,South,180,13.0,-999.0,87,-99.99,,,-99.99,,2013-01-12 05:32:00,
2013-01-12 00:42:00,49.0,45.0,29.87,South,180,13.0,-999.0,87,-99.99,,,-99.99,,2013-01-12 05:42:00,
2013-01-12 00:52:00,49.0,45.0,29.87,South,180,13.0,-999.0,87,-99.99,,,-99.99,,2013-01-12 05:52:00,
2013-01-12 01:00:00,48.0,45.0,29.86,South,180,15.0,-999.0,89,-99.99,,,-99.99,,2013-01-12 06:00:00,
2013-01-12 01:22:00,48.0,45.0,29.86,South,180,15.0,-999.0,89,-99.99,,,-99.99,,2013-01-12 06:22:00,
2013-01-12 01:32:00,48.0,45.0,29.86,South,180,15.0,-999.0,89,-99.99,,,-99.99,,2013-01-12 06:32:00,
2013-01-12 01:42:00,48.0,45.0,29.86,South,180,15.0,-999.0,89,-99.99,,,-99.99,,2013-01-12 06:42:00,
2013-01-12 01:52:00,48.0,45.0,29.86,South,180,15.0,-999.0,89,-99.99,,,-99.99,,2013-01-12 06:52:00,
2013-01-12 02:00:00,49.0,45.0,29.85,South,180,16.0,-999.0,87,-99.99,,,-99.99,,2013-01-12 07:00:00,
2013-01-12 02:21:00,49.0,45.0,29.85,South,180,16.0,-999.0,87,-99.99,,,-99.99,,2013-01-12 07:21:00,
2013-01-12 02:32:00,49.0,45.0,29.85,South,180,16.0,-999.0,87,-99.99,,,-99.99,,2013-01-12 07:32:00,
2013-01-12 02:42:00,49.0,45.0,29.85,South,180,16.0,-999.0,87,-99.99,,,-99.99,,2013-01-12 07:42:00,
2013-01-12 02:52:00,49.0,45.0,29.85,South,180,16.0,-999.0,87,-99.99,,,-99.99,,2013-01-12 07:52:00,
2013-01-12 03:00:00,50.0,46.0,29.85,South,180,17.0,-999.0,86,-99.99,,,-99.99,,2013-01-12 08:00:00,
2013-01-12 03:22:00,50.0,46.0,29.85,South,180,17.0,-999.0,86,-99.99,,,-99.99,,2013-01-12 08:22:00,
2013-01-12 03:32:00,50.0,46.0,29.85,South,180,17.0,-999.0,86,-99.99,,,-99.99,,2013-01-12 08:32:00,
2013-01-12 03:42:00,50.0,46.0,29.85,South,180,17.0,-999.0,86,-99.99,,,-99.99,,2013-01-12 08:42:00,
2013-01-12 03:52:00,50.0,46.0,29.85,South,180,17.0,-999.0,86,-99.99,,,-99.99,,2013-01-12 08:52:00,
2013-01-12 04:00:00,51.0,46.0,29.85,South,180,20.0,-999.0,84,-99.99,,,-99.99,,2013-01-12 09:00:00,
2013-01-12 04:22:00,51.0,46.0,29.85,South,180,20.0,-999.0,84,-99.99,,,-99.99,,2013-01-12 09:22:00,
2013-01-12 04:32:00,51.0,46.0,29.85,South,180,20.0,-999.0,84,-99.99,,,-99.99,,2013-01-12 09:32:00,
2013-01-12 04:42:00,51.0,46.0,29.85,South,180,20.0,-999.0,84,-99.99,,,-99.99,,2013-01-12 09:42:00,
2013-01-12 04:52:00,51.0,46.0,29.85,South,180,20.0,-999.0,84,-99.99,,,-99.99,,2013-01-12 09:52:00,
2013-01-12 05:00:00,51.0,46.0,29.84,South,180,18.0,-999.0,83,-99.99,,,-99.99,,2013-01-12 10:00:00,
2013-01-12 05:22:00,51.0,46.0,29.84,South,180,18.0,-999.0,83,-99.99,,,-99.99,,2013-01-12 10:22:00,
2013-01-12 05:32:00,51.0,46.0,29.84,South,180,18.0,-999.0,83,-99.99,,,-99.99,,2013-01-12 10:32:00,
2013-01-12 05:42:00,51.0,46.0,29.84,South,180,18.0,-999.0,83,-99.99,,,-99.99,,2013-01-12 10:42:00,
2013-01-12 05:52:00,51.0,46.0,29.84,South,180,18.0,-999.0,83,-99.99,,,-99.99,,2013-01-12 10:52:00,
2013-01-12 06:00:00,44.0,43.0,29.79,South,180,22.0,-999.0,93,-99.99,,,-99.99,,2013-01-12 11:00:00,
2013-01-12 06:22:00,44.0,43.0,29.79,South,180,22.0,-999.0,93,-99.99,,,-99.99,,2013-01-12 11:22:00,
2013-01-12 06:32:00,44.0,43.0,29.79,South,180,22.0,-999.0,93,-99.99,,,-99.99,,2013-01-12 11:32:00,
2013-01-12 06:42:00,44.0,43.0,29.79,South,180,22.0,-999.0,93,-99.99,,,-99.99,,2013-01-12 11:42:00,
2013-01-12 06:52:00,44.0,43.0,29.79,South,180,22.0,-999.0,93,-99.99,,,-99.99,,2013-01-12 11:52:00,
2013-01-12 07:00:00,45.0,43.0,29.79,South,190,22.0,-999.0,94,-99.99,,,-99.99,,2013-01-12 12:00:00,
2013-01-12 07:22:00,45.0,43.0,29.79,South,190,22.0,-999.0,94,-99.99,,,-99.99,,2013-01-12 12:22:00,
2013-01-12 07:32:00,45.0,43.0,29.79,South,190,22.0,-999.0,94,-99.99,,,-99.99,,2013-01-12 12:32:00,
2013-01-12 07:42:00,45.0,43.0,29.79,South,190,22.0,-999.0,94,-99.99,,,-99.99,,2013-01-12 12:42:00,
2013-01-12 07:52:00,45.0,43.0,29.79,South,190,22.0,-999.0,94,-99.99,,,-99.99,,2013-01-12 12:52:00,
2013-01-12 08:00:00,44.0,42.0,29.81,SSW,200,23.0,-999.0,95,-99.99,,,-99.99,,2013-01-12 13:00:00,
2013-01-12 08:22:00,44.0,42.0,29.81,SSW,200,23.0,-999.0,95,-99.99,,,-99.99,,2013-01-12 13:22:00,
2013-01-12 08:32:00,44.0,42.0,29.81,SSW,200,23.0,-999.0,95,-99.99,,,-99.99,,2013-01-12 13:32:00,
2013-01-12 08:42:00,44.0,42.0,29.81,SSW,200,23.0,-999.0,95,-99.99,,,-99.99,,2013-01-12 13:42:00,
2013-01-12 08:52:00,44.0,42.0,29.81,SSW,200,23.0,-999.0,95,-99.99,,,-99.99,,2013-01-12 13:52:00,
2013-01-12 09:00:00,44.0,43.0,29.84,South,190,20.0,-999.0,96,-99.99,,,-99.99,,2013-01-12 14:00:00,
2013-01-12 09:22:00,44.0,43.0,29.84,South,190,20.0,-999.0,96,-99.99,,,-99.99,,2013-01-12 14:22:00,
2013-01-12 09:32:00,44.0,43.0,29.84,South,190,20.0,-999.0,96,-99.99,,,-99.99,,2013-01-12 14:32:00,
2013-01-12 09:42:00,44.0,43.0,29.84,South,190,20.0,-999.0,96,-99.99,,,-99.99,,2013-01-12 14:42:00,
2013-01-12 09:53:00,44.0,43.0,29.84,South,190,20.0,-999.0,96,-99.99,,,-99.99,,2013-01-12 14:53:00,
2013-01-12 10:00:00,47.0,45.0,29.90,SW,220,20.0,-999.0,90,-99.99,,,-99.99,,2013-01-12 15:00:00,
2013-01-12 10:22:00,47.0,45.0,29.90,SW,220,20.0,-999.0,90,-99.99,,,-99.99,,2013-01-12 15:22:00,
2013-01-12 10:33:00,47.0,45.0,29.90,SW,220,20.0,-999.0,90,-99.99,,,-99.99,,2013-01-12 15:33:00,
2013-01-12 10:42:00,47.0,45.0,29.90,SW,220,20.0,-999.0,90,-99.99,,,-99.99,,2013-01-12 15:42:00,
2013-01-12 10:52:00,47.0,45.0,29.90,SW,220,20.0,-999.0,90,-99.99,,,-99.99,,2013-01-12 15:52:00,
2013-01-12 11:00:00,49.0,45.0,29.91,SSW,210,13.0,-999.0,87,-99.99,,,-99.99,,2013-01-12 16:00:00,
2013-01-12 11:22:00,49.0,45.0,29.91,SSW,210,13.0,-999.0,87,-99.99,,,-99.99,,2013-01-12 16:22:00,
2013-01-12 11:32:00,49.0,45.0,29.91,SSW,210,13.0,-999.0,87,-99.99,,,-99.99,,2013-01-12 16:32:00,
2013-01-12 11:42:00,49.0,45.0,29.91,SSW,210,13.0,-999.0,87,-99.99,,,-99.99,,2013-01-12 16:42:00,
2013-01-12 11:52:00,49.0,45.0,29.91,SSW,210,13.0,-999.0,87,-99.99,,,-99.99,,2013-01-12 16:52:00,
2013-01-12 12:00:00,50.0,46.0,29.26,SSW,200,17.0,-999.0,86,-99.99,,,-99.99,,2013-01-12 17:00:00,
2013-01-12 12:22:00,50.0,46.0,29.26,SSW,200,17.0,-999.0,86,-99.99,,,-99.99,,2013-01-12 17:22:00,
2013-01-12 12:32:00,50.0,46.0,29.26,SSW,200,17.0,-999.0,86,-99.99,,,-99.99,,2013-01-12 17:32:00,
2013-01-12 12:42:00,50.0,46.0,29.26,SSW,200,17.0,-999.0,86,-99.99,,,-99.99,,2013-01-12 17:42:00,
2013-01-12 12:52:00,50.0,46.0,29.26,SSW,200,17.0,-999.0,86,-99.99,,,-99.99,,2013-01-12 17:52:00,
2013-01-12 13:00:00,53.0,48.0,29.87,SW,220,18.0,-999.0,83,-99.99,,,-99.99,,2013-01-12 18:00:00,
2013-01-12 13:22:00,53.0,48.0,29.87,SW,220,18.0,-999.0,83,-99.99,,,-99.99,,2013-01-12 18:22:00,
2013-01-12 13:32:00,53.0,48.0,29.87,SW,220,18.0,-999.0,83,-99.99,,,-99.99,,2013-01-12 18:32:00,
2013-01-12 13:42:00,53.0,48.0,29.87,SW,220,18.0,-999.0,83,-99.99,,,-99.99,,2013-01-12 18:42:00,
2013-01-12 13:52:00,53.0,48.0,29.87,SW,220,18.0,-999.0,83,-99.99,,,-99.99,,2013-01-12 18:52:00,
2013-01-12 14:00:00,51.0,48.0,29.86,SSW,210,24.0,-999.0,88,-99.99,,,-99.99,,2013-01-12 19:00:00,
2013-01-12 14:22:00,51.0,48.0,29.86,SSW,210,24.0,-999.0,88,-99.99,,,-99.99,,2013-01-12 19:22:00,
2013-01-12 14:32:00,51.0,48.0,29.86,SSW,210,24.0,-999.0,88,-99.99,,,-99.99,,2013-01-12 19:32:00,
2013-01-12 14:42:00,51.0,48.0,29.86,SSW,210,24.0,-999.0,88,-99.99,,,-99.99,,2013-01-12 19:42:00,
2013-01-12 14:52:00,51.0,48.0,29.86,SSW,210,24.0,-999.0,88,-99.99,,,-99.99,,2013-01-12 19:52:00,
2013-01-12 15:00:00,56.0,50.0,29.89,SW,220,18.0,-999.0,79,-99.99,,,-99.99,,2013-01-12 20:00:00,
2013-01-12 15:22:00,56.0,50.0,29.89,SW,220,18.0,-999.0,79,-99.99,,,-99.99,,2013-01-12 20:22:00,
2013-01-12 15:32:00,56.0,50.0,29.89,SW,220,18.0,-999.0,79,-99.99,,,-99.99,,2013-01-12 20:32:00,
2013-01-12 15:42:00,56.0,50.0,29.89,SW,220,18.0,-999.0,79,-99.99,,,-99.99,,2013-01-12 20:42:00,
2013-01-12 15:52:00,56.0,50.0,29.89,SW,220,18.0,-999.0,79,-99.99,,,-99.99,,2013-01-12 20:52:00,
2013-01-12 16:00:00,57.0,50.0,29.30,SW,220,16.0,-999.0,76,-99.99,,,-99.99,,2013-01-12 21:00:00,
2013-01-12 16:22:00,57.0,50.0,29.30,SW,220,16.0,-999.0,76,-99.99,,,-99.99,,2013-01-12 21:22:00,
2013-01-12 16:32:00,57.0,50.0,29.30,SW,220,16.0,-999.0,76,-99.99,,,-99.99,,2013-01-12 21:32:00,
2013-01-12 16:42:00,57.0,50.0,29.30,SW,220,16.0,-999.0,76,-99.99,,,-99.99,,2013-01-12 21:42:00,
2013-01-12 16:52:00,57.0,50.0,29.30,SW,220,16.0,-999.0,76,-99.99,,,-99.99,,2013-01-12 21:52:00,
2013-01-12 17:00:00,53.0,49.0,29.93,SSW,200,14.0,-999.0,86,-99.99,,,-99.99,,2013-01-12 22:00:00,
2013-01-12 17:22:00,53.0,49.0,29.93,SSW,200,14.0,-999.0,86,-99.99,,,-99.99,,2013-01-12 22:22:00,
2013-01-12 17:32:00,53.0,49.0,29.93,SSW,200,14.0,-999.0,86,-99.99,,,-99.99,,2013-01-12 22:32:00,
2013-01-12 17:42:00,53.0,49.0,29.93,SSW,200,14.0,-999.0,86,-99.99,,,-99.99,,2013-01-12 22:42:00,
2013-01-12 17:52:00,53.0,49.0,29.93,SSW,200,14.0,-999.0,86,-99.99,,,-99.99,,2013-01-12 22:52:00,
2013-01-12 18:00:00,45.0,45.0,29.95,SW,230,14.0,-999.0,97,-99.99,,,-99.99,,2013-01-12 23:00:00,
2013-01-12 18:21:00,45.0,45.0,29.95,SW,230,14.0,-999.0,97,-99.99,,,-99.99,,2013-01-12 23:21:00,
2013-01-12 18:32:00,45.0,45.0,29.95,SW,230,14.0,-999.0,97,-99.99,,,-99.99,,2013-01-12 23:32:00,
2013-01-12 18:42:00,45.0,45.0,29.95,SW,230,14.0,-999.0,97,-99.99,,,-99.99,,2013-01-12 23:42:00,
2013-01-12 18:52:00,45.0,45.0,29.95,SW,230,14.0,-999.0,97,-99.99,,,-99.99,,2013-01-12 23:52:00,
2013-01-12 20:00:00,55.0,54.0,29.92,SW,220,3.0,-999.0,95,-99.99,,,-99.99,,2013-01-13 01:00:00,
2013-01-12 20:22:00,55.0,54.0,29.92,SW,220,3.0,-999.0,95,-99.99,,,-99.99,,2013-01-13 01:22:00,
2013-01-12 20:32:00,55.0,54.0,29.92,SW,220,3.0,-999.0,95,-99.99,,,-99.99,,2013-01-13 01:32:00,
2013-01-12 20:42:00,55.0,54.0,29.92,SW,220,3.0,-999.0,95,-99.99,,,-99.99,,2013-01-13 01:42:00,
2013-01-12 20:52:00,55.0,54.0,29.92,SW,220,3.0,-999.0,95,-99.99,,,-99.99,,2013-01-13 01:52:00,
2013-01-12 21:00:00,54.0,53.0,29.90,SE,140,3.0,-999.0,98,-99.99,,,-99.99,,2013-01-13 02:00:00,
2013-01-12 21:22:00,54.0,53.0,29.90,SE,140,3.0,-999.0,98,-99.99,,,-99.99,,2013-01-13 02:22:00,
2013-01-12 21:32:00,54.0,53.0,29.90,SE,140,3.0,-999.0,98,-99.99,,,-99.99,,2013-01-13 02:32:00,
2013-01-12 21:42:00,54.0,53.0,29.90,SE,140,3.0,-999.0,98,-99.99,,,-99.99,,2013-01-13 02:42:00,
2013-01-12 21:52:00,54.0,53.0,29.90,SE,140,3.0,-999.0,98,-99.99,,,-99.99,,2013-01-13 02:52:00,
2013-01-12 22:00:00,50.0,49.0,29.89,ENE,70,7.0,-999.0,98,-99.99,,,-99.99,,2013-01-13 03:00:00,
2013-01-12 22:22:00,50.0,49.0,29.89,ENE,70,7.0,-999.0,98,-99.99,,,-99.99,,2013-01-13 03:22:00,
2013-01-12 22:32:00,50.0,49.0,29.89,ENE,70,7.0,-999.0,98,-99.99,,,-99.99,,2013-01-13 03:32:00,
2013-01-12 22:42:00,50.0,49.0,29.89,ENE,70,7.0,-999.0,98,-99.99,,,-99.99,,2013-01-13 03:42:00,
2013-01-12 22:52:00,50.0,49.0,29.89,ENE,70,7.0,-999.0,98,-99.99,,,-99.99,,2013-01-13 03:52:00,
2013-01-12 23:22:00,52.0,52.0,29.86,ENE,70,9.0,-999.0,100,-99.99,,,-99.99,,2013-01-13 04:22:00,
2013-01-12 23:32:00,52.0,52.0,29.86,ENE,70,9.0,-999.0,100,-99.99,,,-99.99,,2013-01-13 04:32:00,
2013-01-12 23:42:00,52.0,52.0,29.86,ENE,70,9.0,-999.0,100,-99.99,,,-99.99,,2013-01-13 04:42:00,
2013-01-12 23:52:00,52.0,52.0,29.86,ENE,70,9.0,-999.0,100,-99.99,,,-99.99,,2013-01-13 04:52:00,